User: anonymous   Login
Location: The Jewett Observatory
(46.7288°N, 117.1525°W)
Time: 03:19:26
(UTC-07:00)
Language:

Cosmos 1633 - Orbit

View from above orbital plane
View from above orbital plane
View from above satellite
View from above satellite

Ground track
Ground track

The orbit data is extracted from the following two-line orbital elements,

1 15592U 85020A   16237.12808755  .00001533  00000-0  55903-4 0  9990
2 15592  82.5361 256.6838 0015306 141.8354 218.3972 15.27257759718938
Epoch (UTC): 24 August 2016 03:04:26
Eccentricity: 0.0015306
inclination: 82.5361°
perigee height: 473 km
apogee height: 494 km
right ascension of ascending node: 256.6838°
argument of perigee: 141.8354°
revolutions per day: 15.27257759
mean anomaly at epoch: 218.3972°
orbit number at epoch: 71893

The dashed part of the orbit path shows where the satellite is in the earth's shadow,  

DLR